| time (UTC) | temp F | wind direction | speed MPH | gust MPH | rain 1hr in | rain 24hr in | rain mn in | humidity % | barometer mb |
| 20260508132949 | 57 | 46 | 1.0 | 3.0 | 0.00 | 0.00 | 0.00 | 79 | 1019.3 |
| 20260508132439 | 56 | 28 | 0.0 | 5.0 | 0.00 | 0.00 | 0.00 | 79 | 1019.4 |
| 20260508131940 | 56 | 53 | 1.0 | 5.0 | 0.00 | 0.00 | 0.00 | 78 | 1019.3 |
| 20260508131435 | 56 | 28 | 0.0 | 4.0 | 0.00 | 0.00 | 0.00 | 80 | 1019.3 |
| 20260508130931 | 56 | 63 | 1.0 | 4.0 | 0.00 | 0.00 | 0.00 | 78 | 1019.3 |
| 20260508130422 | 56 | 60 | 1.0 | 4.0 | 0.00 | 0.00 | 0.00 | 77 | 1019.3 |
| 20260508130144 | 56 | 213 | 1.0 | 5.0 | 0.00 | 0.00 | 0.00 | 76 | 1019.3 |
| 20260508125418 | 56 | 197 | 2.0 | 5.0 | 0.00 | 0.00 | 0.00 | 76 | 1019.4 |
| 20260508124913 | 56 | 1 | 1.0 | 4.0 | 0.00 | 0.00 | 0.00 | 77 | 1019.4 |
| 20260508124415 | 56 | 223 | 2.0 | 5.0 | 0.00 | 0.00 | 0.00 | 75 | 1019.4 |
| 20260508123911 | 56 | 23 | 2.0 | 6.0 | 0.00 | 0.00 | 0.00 | 77 | 1019.3 |
| 20260508123406 | 56 | 314 | 2.0 | 6.0 | 0.00 | 0.00 | 0.00 | 76 | 1019.2 |
| 20260508122906 | 57 | 1 | 1.0 | 4.0 | 0.00 | 0.00 | 0.00 | 78 | 1019.3 |
| 20260508122532 | 57 | 81 | 1.0 | 4.0 | 0.00 | 0.00 | 0.00 | 80 | 1019.2 |
| 20260508120854 | 55 | 178 | 1.0 | 3.0 | 0.00 | 0.00 | 0.00 | 81 | 1019.4 |
| 20260508120354 | 56 | 223 | 1.0 | 6.0 | 0.00 | 0.00 | 0.00 | 78 | 1019.3 |
| 20260508115850 | 56 | 46 | 2.0 | 10.0 | 0.00 | 0.00 | 0.00 | 76 | 1019.3 |
| 20260508115345 | 56 | 215 | 1.0 | 10.0 | 0.00 | 0.00 | 0.00 | 73 | 1019.4 |
| 20260508114845 | 56 | 306 | 2.0 | 12.0 | 0.00 | 0.00 | 0.00 | 73 | 1019.3 |
| 20260508114341 | 57 | 199 | 1.0 | 12.0 | 0.00 | 0.00 | 0.00 | 72 | 1019.2 |
| 20260508113842 | 57 | 245 | 3.0 | 9.0 | 0.00 | 0.00 | 0.00 | 71 | 1019.0 |
| 20260508113554 | 57 | 20 | 3.0 | 9.0 | 0.00 | 0.00 | 0.00 | 71 | 1019.1 |
| 20260508112833 | 58 | 221 | 3.0 | 8.0 | 0.00 | 0.00 | 0.00 | 70 | 1018.9 |
| 20260508112329 | 58 | 243 | 2.0 | 8.0 | 0.00 | 0.00 | 0.00 | 72 | 1018.9 |
| 20260508111823 | 59 | 126 | 2.0 | 5.0 | 0.00 | 0.00 | 0.00 | 72 | 1018.7 |
| 20260508111321 | 59 | 314 | 2.0 | 6.0 | 0.00 | 0.00 | 0.00 | 73 | 1018.8 |
| 20260508110815 | 59 | 23 | 2.0 | 6.0 | 0.00 | 0.00 | 0.00 | 75 | 1018.8 |
| 20260508110330 | 58 | 124 | 2.0 | 9.0 | 0.00 | 0.00 | 0.00 | 77 | 1018.8 |
| 20260508105813 | 57 | 98 | 2.0 | 9.0 | 0.00 | 0.00 | 0.00 | 77 | 1018.9 |
| 20260508105312 | 57 | 145 | 3.0 | 8.0 | 0.00 | 0.00 | 0.00 | 78 | 1018.9 |
| 20260508104808 | 56 | 105 | 2.0 | 8.0 | 0.00 | 0.00 | 0.00 | 79 | 1018.8 |
| 20260508104303 | 55 | 210 | 2.0 | 6.0 | 0.00 | 0.00 | 0.00 | 79 | 1018.9 |
| 20260508103803 | 55 | 340 | 2.0 | 6.0 | 0.00 | 0.00 | 0.00 | 80 | 1018.9 |
| 20260508103259 | 55 | 245 | 2.0 | 5.0 | 0.00 | 0.00 | 0.00 | 80 | 1018.8 |
| 20260508103021 | 54 | 257 | 2.0 | 6.0 | 0.00 | 0.00 | 0.00 | 79 | 1018.8 |
| 20260508102255 | 54 | 340 | 3.0 | 6.0 | 0.00 | 0.00 | 0.00 | 80 | 1018.8 |
| 20260508102009 | 54 | 103 | 2.0 | 6.0 | 0.00 | 0.00 | 0.00 | 80 | 1018.7 |
| 20260508101252 | 54 | 206 | 2.0 | 5.0 | 0.00 | 0.00 | 0.00 | 80 | 1018.8 |
| 20260508100747 | 54 | 117 | 2.0 | 5.0 | 0.00 | 0.00 | 0.00 | 80 | 1018.8 |
| 20260508100247 | 54 | 127 | 2.0 | 7.0 | 0.00 | 0.00 | 0.00 | 81 | 1018.7 |
| 20260508095743 | 53 | 1 | 2.0 | 7.0 | 0.00 | 0.00 | 0.00 | 80 | 1018.7 |
| 20260508095239 | 53 | 269 | 2.0 | 6.0 | 0.00 | 0.00 | 0.00 | 81 | 1018.6 |
| 20260508094729 | 53 | 213 | 2.0 | 6.0 | 0.00 | 0.00 | 0.00 | 81 | 1018.6 |
| 20260508094225 | 53 | 245 | 3.0 | 6.0 | 0.00 | 0.00 | 0.00 | 81 | 1018.5 |
| 20260508093721 | 53 | 238 | 3.0 | 7.0 | 0.00 | 0.00 | 0.00 | 81 | 1018.5 |
| 20260508093438 | 53 | 197 | 2.0 | 7.0 | 0.00 | 0.00 | 0.00 | 81 | 1018.5 |
| 20260508092711 | 53 | 218 | 2.0 | 7.0 | 0.00 | 0.00 | 0.00 | 81 | 1018.5 |
| 20260508092212 | 53 | 238 | 3.0 | 9.0 | 0.00 | 0.00 | 0.00 | 80 | 1018.6 |
| 20260508091707 | 53 | 220 | 3.0 | 11.0 | 0.00 | 0.00 | 0.00 | 81 | 1018.5 |
| 20260508091207 | 53 | 220 | 4.0 | 11.0 | 0.00 | 0.00 | 0.00 | 80 | 1018.6 |
| 20260508090924 | 53 | 269 | 2.0 | 7.0 | 0.00 | 0.00 | 0.00 | 81 | 1018.6 |
| 20260508090204 | 53 | 72 | 2.0 | 7.0 | 0.00 | 0.00 | 0.00 | 80 | 1018.6 |
| 20260508085659 | 53 | 276 | 3.0 | 10.0 | 0.00 | 0.00 | 0.00 | 81 | 1018.5 |
| 20260508085159 | 53 | 240 | 3.0 | 10.0 | 0.00 | 0.00 | 0.00 | 81 | 1018.5 |
| 20260508084923 | 53 | 269 | 4.0 | 9.0 | 0.00 | 0.00 | 0.00 | 81 | 1018.5 |
| 20260508084152 | 53 | 135 | 2.0 | 7.0 | 0.00 | 0.00 | 0.00 | 81 | 1018.4 |
| 20260508083646 | 53 | 233 | 2.0 | 7.0 | 0.00 | 0.00 | 0.00 | 82 | 1018.3 |
| 20260508083148 | 52 | 208 | 2.0 | 7.0 | 0.00 | 0.00 | 0.00 | 82 | 1018.3 |
| 20260508082644 | 52 | 110 | 4.0 | 6.0 | 0.00 | 0.00 | 0.00 | 81 | 1018.3 |
| 20260508082622 | 52 | 35 | 2.0 | 6.0 | 0.00 | 0.00 | 0.00 | 81 | 1018.2 |
| 20260508081638 | 52 | 269 | 3.0 | 6.0 | 0.00 | 0.00 | 0.00 | 81 | 1018.2 |
| 20260508081134 | 52 | 63 | 2.0 | 7.0 | 0.00 | 0.00 | 0.00 | 81 | 1018.2 |
| 20260508080630 | 52 | 269 | 3.0 | 7.0 | 0.00 | 0.00 | 0.00 | 81 | 1018.2 |
| 20260508080126 | 52 | 89 | 2.0 | 7.0 | 0.00 | 0.00 | 0.00 | 81 | 1018.1 |
| 20260508075627 | 52 | 324 | 3.0 | 7.0 | 0.00 | 0.00 | 0.00 | 81 | 1018.1 |
| 20260508075122 | 52 | 1 | 3.0 | 7.0 | 0.00 | 0.00 | 0.00 | 81 | 1018.0 |
| 20260508074617 | 52 | 128 | 2.0 | 6.0 | 0.00 | 0.00 | 0.00 | 81 | 1018.0 |
| 20260508074112 | 52 | 117 | 2.0 | 6.0 | 0.00 | 0.00 | 0.00 | 81 | 1017.9 |
| 20260508073608 | 52 | 257 | 3.0 | 6.0 | 0.00 | 0.00 | 0.00 | 81 | 1017.9 |
| 20260508073103 | 51 | 63 | 2.0 | 5.0 | 0.00 | 0.00 | 0.00 | 81 | 1017.9 |
| 20260508072603 | 51 | 253 | 2.0 | 5.0 | 0.00 | 0.00 | 0.00 | 81 | 1017.8 |
| 20260508072100 | 51 | 223 | 2.0 | 5.0 | 0.00 | 0.00 | 0.00 | 80 | 1017.7 |
| 20260508072047 | 51 | 122 | 3.0 | 5.0 | 0.00 | 0.00 | 0.00 | 81 | 1017.6 |
| 20260508071056 | 51 | 60 | 2.0 | 5.0 | 0.00 | 0.00 | 0.00 | 81 | 1017.6 |
| 20260508070551 | 51 | 130 | 2.0 | 5.0 | 0.00 | 0.00 | 0.00 | 81 | 1017.5 |
| 20260508070047 | 51 | 1 | 1.0 | 5.0 | 0.00 | 0.00 | 0.00 | 81 | 1017.6 |
| 20260508065548 | 50 | 1 | 1.0 | 5.0 | 0.00 | 0.00 | 0.00 | 81 | 1017.6 |
| 20260508065043 | 50 | 220 | 1.0 | 5.0 | 0.00 | 0.00 | 0.00 | 81 | 1017.5 |
| 20260508064539 | 50 | 178 | 2.0 | 5.0 | 0.00 | 0.00 | 0.00 | 82 | 1017.5 |
| 20260508064039 | 50 | 105 | 2.0 | 6.0 | 0.00 | 0.00 | 0.00 | 82 | 1017.4 |
| 20260508063535 | 50 | 46 | 2.0 | 6.0 | 0.00 | 0.00 | 0.00 | 83 | 1017.3 |
| 20260508063248 | 49 | 53 | 2.0 | 5.0 | 0.00 | 0.00 | 0.00 | 83 | 1017.2 |
| 20260508062530 | 49 | 290 | 2.0 | 4.0 | 0.00 | 0.00 | 0.00 | 84 | 1017.2 |
| 20260508062027 | 49 | 81 | 2.0 | 4.0 | 0.00 | 0.00 | 0.00 | 85 | 1017.1 |
| 20260508061959 | 48 | 35 | 2.0 | 4.0 | 0.00 | 0.00 | 0.00 | 85 | 1017.1 |
| 20260508061018 | 48 | 124 | 1.0 | 4.0 | 0.00 | 0.00 | 0.00 | 86 | 1017.1 |
| 20260508060513 | 48 | 206 | 1.0 | 2.0 | 0.00 | 0.00 | 0.00 | 87 | 1017.1 |
| 20260508060014 | 47 | 324 | 1.0 | 4.0 | 0.00 | 0.00 | 0.00 | 88 | 1017.0 |
| 20260508055510 | 47 | 314 | 1.0 | 4.0 | 0.00 | 0.00 | 0.00 | 88 | 1017.0 |
| 20260508055012 | 47 | 46 | 1.0 | 2.0 | 0.00 | 0.00 | 0.00 | 88 | 1017.0 |
| 20260508054507 | 46 | 314 | 0.0 | 2.0 | 0.00 | 0.00 | 0.00 | 88 | 1016.9 |
| 20260508053956 | 46 | 89 | 0.0 | 2.0 | 0.00 | 0.00 | 0.00 | 88 | 1016.9 |
| 20260508053452 | 46 | 135 | 0.0 | 1.0 | 0.00 | 0.00 | 0.00 | 88 | 1016.8 |
| 20260508052952 | 46 | 89 | 0.0 | 2.0 | 0.00 | 0.00 | 0.00 | 88 | 1016.7 |
| 20260508052447 | 46 | 269 | 0.0 | 2.0 | 0.00 | 0.00 | 0.00 | 88 | 1016.7 |
| 20260508051943 | 46 | 28 | 1.0 | 2.0 | 0.00 | 0.00 | 0.00 | 87 | 1016.6 |
| 20260508051438 | 46 | 46 | 1.0 | 1.0 | 0.00 | 0.00 | 0.00 | 87 | 1016.6 |
| 20260508050934 | 46 | 250 | 0.0 | 1.0 | 0.00 | 0.00 | 0.00 | 87 | 1016.6 |
| 20260508050437 | 46 | 28 | 0.0 | 1.0 | 0.00 | 0.00 | 0.00 | 87 | 1016.5 |
| 20260508050138 | 46 | 28 | 0.0 | 1.0 | 0.00 | 0.00 | 0.00 | 87 | 1016.4 |
| 20260508045410 | 46 | 28 | 0.0 | 2.0 | 0.00 | 0.00 | 0.00 | 86 | 1016.4 |
| 20260508044906 | 46 | 1 | 1.0 | 2.0 | 0.00 | 0.00 | 0.00 | 86 | 1016.4 |
| 20260508044402 | 46 | 269 | 1.0 | 3.0 | 0.00 | 0.00 | 0.00 | 87 | 1016.4 |
| 20260508043843 | 46 | 117 | 1.0 | 3.0 | 0.00 | 0.00 | 0.00 | 87 | 1016.4 |
| 20260508043338 | 46 | 145 | 1.0 | 3.0 | 0.00 | 0.00 | 0.00 | 87 | 1016.4 |
| 20260508043054 | 46 | 145 | 1.0 | 2.0 | 0.00 | 0.00 | 0.00 | 87 | 1016.4 |
| 20260508042531 | 46 | 63 | 0.0 | 3.0 | 0.00 | 0.00 | 0.00 | 87 | 1016.5 |
| 20260508041543 | 46 | 102 | 1.0 | 3.0 | 0.00 | 0.00 | 0.00 | 87 | 1016.5 |
| 20260508041051 | 46 | 135 | 1.0 | 4.0 | 0.00 | 0.00 | 0.00 | 87 | 1016.3 |
| 20260508040539 | 46 | 145 | 1.0 | 4.0 | 0.00 | 0.00 | 0.00 | 87 | 1016.3 |
| 20260508035817 | 46 | 135 | 2.0 | 4.0 | 0.00 | 0.00 | 0.00 | 87 | 1016.2 |
| 20260508035755 | 46 | 117 | 2.0 | 4.0 | 0.00 | 0.00 | 0.00 | 87 | 1016.3 |
| 20260508034819 | 46 | 131 | 2.0 | 4.0 | 0.00 | 0.00 | 0.00 | 87 | 1016.2 |
| 20260508034313 | 46 | 89 | 2.0 | 4.0 | 0.00 | 0.00 | 0.00 | 87 | 1016.3 |
| 20260508033809 | 46 | 117 | 2.0 | 3.0 | 0.00 | 0.00 | 0.00 | 87 | 1016.3 |
| 20260508033304 | 46 | 117 | 1.0 | 3.0 | 0.00 | 0.00 | 0.00 | 87 | 1016.4 |
| 20260508032800 | 46 | 178 | 1.0 | 3.0 | 0.00 | 0.00 | 0.00 | 87 | 1016.4 |
| 20260508032305 | 46 | 53 | 2.0 | 3.0 | 0.00 | 0.00 | 0.00 | 87 | 1016.4 |
| 20260508031756 | 46 | 117 | 1.0 | 3.0 | 0.00 | 0.00 | 0.00 | 87 | 1016.4 |
| 20260508031254 | 46 | 240 | 1.0 | 3.0 | 0.00 | 0.00 | 0.00 | 87 | 1016.5 |
| 20260508030748 | 46 | 46 | 1.0 | 3.0 | 0.00 | 0.00 | 0.00 | 87 | 1016.4 |
| 20260508030503 | 45 | 152 | 1.0 | 2.0 | 0.00 | 0.00 | 0.00 | 86 | 1016.4 |
| 20260508025743 | 45 | 213 | 1.0 | 2.0 | 0.00 | 0.00 | 0.00 | 86 | 1016.3 |
| 20260508025239 | 46 | 223 | 0.0 | 2.0 | 0.00 | 0.00 | 0.00 | 86 | 1016.4 |
| 20260508024734 | 46 | 178 | 1.0 | 2.0 | 0.00 | 0.00 | 0.00 | 86 | 1016.2 |
| 20260508024231 | 46 | 89 | 1.0 | 2.0 | 0.00 | 0.00 | 0.00 | 86 | 1016.3 |
| 20260508023949 | 46 | 89 | 1.0 | 2.0 | 0.00 | 0.00 | 0.00 | 85 | 1016.3 |
| 20260508023226 | 46 | 89 | 0.0 | 2.0 | 0.00 | 0.00 | 0.00 | 85 | 1016.2 |
| 20260508022722 | 46 | 46 | 0.0 | 2.0 | 0.00 | 0.00 | 0.00 | 85 | 1016.2 |
| 20260508022426 | 47 | 89 | 0.0 | 2.0 | 0.00 | 0.00 | 0.00 | 85 | 1016.3 |
| 20260508021707 | 47 | 46 | 1.0 | 2.0 | 0.00 | 0.00 | 0.00 | 85 | 1016.2 |
| 20260508021205 | 47 | 135 | 0.0 | 2.0 | 0.00 | 0.00 | 0.00 | 85 | 1016.2 |
| 20260508020927 | 47 | 1 | 0.0 | 2.0 | 0.00 | 0.00 | 0.00 | 85 | 1016.2 |
| 20260508020203 | 47 | 63 | 0.0 | 2.0 | 0.00 | 0.00 | 0.00 | 85 | 1016.1 |
| 20260508015654 | 47 | 89 | 1.0 | 2.0 | 0.00 | 0.00 | 0.00 | 85 | 1016.2 |
| 20260508015417 | 47 | 89 | 1.0 | 2.0 | 0.00 | 0.00 | 0.00 | 85 | 1016.2 |
| 20260508014646 | 47 | 135 | 1.0 | 3.0 | 0.00 | 0.00 | 0.00 | 85 | 1016.2 |
| 20260508014146 | 47 | 135 | 1.0 | 3.0 | 0.00 | 0.00 | 0.00 | 85 | 1016.2 |
| 20260508013643 | 47 | 314 | 0.0 | 1.0 | 0.00 | 0.00 | 0.00 | 84 | 1016.2 |
| 20260508013137 | 47 | 89 | 0.0 | 2.0 | 0.00 | 0.00 | 0.00 | 84 | 1016.2 |
| 20260508012633 | 47 | 269 | 1.0 | 2.0 | 0.00 | 0.00 | 0.00 | 84 | 1016.2 |
| 20260508012130 | 47 | 178 | 1.0 | 2.0 | 0.00 | 0.00 | 0.00 | 84 | 1016.3 |
| 20260508011629 | 47 | 269 | 0.0 | 2.0 | 0.00 | 0.00 | 0.00 | 83 | 1016.4 |
| 20260508011125 | 47 | 46 | 1.0 | 2.0 | 0.00 | 0.00 | 0.00 | 83 | 1016.5 |
| 20260508010626 | 47 | 63 | 0.0 | 2.0 | 0.00 | 0.00 | 0.00 | 82 | 1016.3 |
| 20260508010106 | 48 | 223 | 0.0 | 2.0 | 0.00 | 0.00 | 0.00 | 82 | 1016.3 |
| 20260508005607 | 48 | 89 | 1.0 | 2.0 | 0.00 | 0.00 | 0.00 | 82 | 1016.2 |
| 20260508005104 | 48 | 63 | 0.0 | 2.0 | 0.00 | 0.00 | 0.00 | 82 | 1016.3 |
| 20260508004603 | 48 | 178 | 1.0 | 2.0 | 0.00 | 0.00 | 0.00 | 82 | 1016.3 |
| 20260508004059 | 48 | 213 | 1.0 | 2.0 | 0.00 | 0.00 | 0.00 | 81 | 1016.4 |
| 20260508003554 | 48 | 223 | 1.0 | 2.0 | 0.00 | 0.00 | 0.00 | 81 | 1016.3 |
| 20260508003321 | 48 | 213 | 1.0 | 2.0 | 0.00 | 0.00 | 0.00 | 81 | 1016.2 |
| 20260508002811 | 49 | 20 | 0.0 | 4.0 | 0.00 | 0.00 | 0.00 | 81 | 1016.2 |
| 20260508002045 | 49 | 269 | 0.0 | 4.0 | 0.00 | 0.00 | 0.00 | 81 | 1016.1 |
| 20260508001541 | 49 | 51 | 1.0 | 4.0 | 0.00 | 0.00 | 0.00 | 80 | 1016.2 |
| 20260508001041 | 49 | 240 | 1.0 | 5.0 | 0.00 | 0.00 | 0.00 | 80 | 1016.3 |
| 20260508000538 | 49 | 145 | 2.0 | 5.0 | 0.00 | 0.00 | 0.00 | 80 | 1016.2 |
| 20260508000033 | 49 | 145 | 1.0 | 4.0 | 0.00 | 0.00 | 0.00 | 80 | 1016.2 |
| 20260507235528 | 50 | 152 | 1.0 | 4.0 | 0.00 | 0.00 | 0.00 | 80 | 1016.2 |
| 20260507235024 | 50 | 131 | 1.0 | 4.0 | 0.00 | 0.00 | 0.00 | 79 | 1016.1 |
| 20260507234743 | 50 | 148 | 1.0 | 3.0 | 0.00 | 0.00 | 0.00 | 79 | 1016.1 |
| 20260507234020 | 50 | 46 | 1.0 | 3.0 | 0.00 | 0.00 | 0.00 | 79 | 1016.2 |
| 20260507233521 | 50 | 306 | 1.0 | 5.0 | 0.00 | 0.00 | 0.00 | 79 | 1016.2 |
| 20260507233016 | 50 | 46 | 2.0 | 5.0 | 0.00 | 0.00 | 0.00 | 79 | 1016.2 |
| 20260507232514 | 50 | 269 | 1.0 | 4.0 | 0.00 | 0.00 | 0.00 | 79 | 1016.2 |
| 20260507232455 | 50 | 28 | 2.0 | 4.0 | 0.00 | 0.00 | 0.00 | 79 | 1016.1 |
| 20260507231508 | 50 | 250 | 2.0 | 4.0 | 0.00 | 0.00 | 0.00 | 78 | 1016.2 |
| 20260507231008 | 50 | 142 | 2.0 | 4.0 | 0.00 | 0.00 | 0.00 | 78 | 1016.1 |
| 20260507230517 | 50 | 1 | 1.0 | 4.0 | 0.00 | 0.00 | 0.00 | 78 | 1016.0 |
| 20260507230227 | 50 | 233 | 2.0 | 4.0 | 0.00 | 0.00 | 0.00 | 79 | 1016.0 |
| 20260507225501 | 50 | 63 | 2.0 | 4.0 | 0.00 | 0.00 | 0.00 | 79 | 1016.2 |
| 20260507224956 | 50 | 300 | 1.0 | 4.0 | 0.00 | 0.00 | 0.00 | 79 | 1016.2 |
| 20260507224715 | 50 | 1 | 1.0 | 4.0 | 0.00 | 0.00 | 0.00 | 79 | 1016.1 |
| 20260507223952 | 50 | 124 | 1.0 | 4.0 | 0.00 | 0.00 | 0.00 | 79 | 1016.2 |
| 20260507223707 | 50 | 46 | 2.0 | 4.0 | 0.00 | 0.00 | 0.00 | 79 | 1016.1 |
| 20260507222943 | 50 | 140 | 1.0 | 4.0 | 0.00 | 0.00 | 0.00 | 79 | 1016.1 |
| 20260507222439 | 50 | 314 | 1.0 | 4.0 | 0.00 | 0.00 | 0.00 | 79 | 1016.1 |
| 20260507221934 | 50 | 117 | 0.0 | 3.0 | 0.00 | 0.00 | 0.00 | 79 | 1016.1 |
| 20260507221430 | 50 | 127 | 1.0 | 3.0 | 0.00 | 0.00 | 0.00 | 79 | 1016.2 |
| 20260507220925 | 51 | 46 | 1.0 | 2.0 | 0.00 | 0.00 | 0.00 | 79 | 1016.2 |
| 20260507220426 | 51 | 56 | 1.0 | 2.0 | 0.00 | 0.00 | 0.00 | 79 | 1016.3 |
| 20260507215921 | 51 | 46 | 1.0 | 2.0 | 0.00 | 0.00 | 0.00 | 79 | 1016.3 |
| 20260507215416 | 51 | 105 | 1.0 | 2.0 | 0.00 | 0.00 | 0.00 | 79 | 1016.2 |
| 20260507214912 | 51 | 46 | 1.0 | 3.0 | 0.00 | 0.00 | 0.00 | 79 | 1016.2 |
| 20260507214414 | 51 | 1 | 1.0 | 3.0 | 0.00 | 0.00 | 0.00 | 79 | 1016.2 |
| 20260507213910 | 51 | 46 | 1.0 | 3.0 | 0.00 | 0.00 | 0.00 | 79 | 1016.2 |
| 20260507213851 | 51 | 46 | 1.0 | 4.0 | 0.00 | 0.00 | 0.00 | 79 | 1016.2 |
| 20260507212907 | 51 | 113 | 1.0 | 4.0 | 0.00 | 0.00 | 0.00 | 80 | 1016.2 |
| 20260507212400 | 51 | 223 | 2.0 | 3.0 | 0.00 | 0.00 | 0.00 | 80 | 1016.2 |
| 20260507211902 | 51 | 51 | 2.0 | 4.0 | 0.00 | 0.00 | 0.00 | 80 | 1016.2 |
| 20260507211357 | 51 | 145 | 1.0 | 4.0 | 0.00 | 0.00 | 0.00 | 80 | 1016.2 |
| 20260507210856 | 51 | 130 | 1.0 | 4.0 | 0.00 | 0.00 | 0.00 | 80 | 1016.3 |
| 20260507210617 | 51 | 124 | 1.0 | 3.0 | 0.00 | 0.00 | 0.00 | 80 | 1016.4 |
| 20260507205852 | 51 | 35 | 1.0 | 3.0 | 0.00 | 0.00 | 0.00 | 80 | 1016.4 |
| 20260507205348 | 51 | 76 | 1.0 | 3.0 | 0.00 | 0.00 | 0.00 | 80 | 1016.3 |
| 20260507204844 | 52 | 152 | 1.0 | 4.0 | 0.00 | 0.00 | 0.00 | 79 | 1016.4 |
| 20260507204827 | 52 | 269 | 2.0 | 4.0 | 0.00 | 0.00 | 0.00 | 79 | 1016.3 |
| 20260507203840 | 52 | 195 | 1.0 | 4.0 | 0.00 | 0.00 | 0.00 | 78 | 1016.3 |
| 20260507203340 | 52 | 117 | 2.0 | 4.0 | 0.00 | 0.00 | 0.00 | 78 | 1016.3 |
| 20260507202836 | 53 | 269 | 1.0 | 4.0 | 0.00 | 0.00 | 0.00 | 77 | 1016.2 |
| 20260507202601 | 53 | 13 | 1.0 | 8.0 | 0.00 | 0.00 | 0.00 | 76 | 1016.1 |
| 20260507201828 | 53 | 102 | 2.0 | 8.0 | 0.00 | 0.00 | 0.00 | 75 | 1016.1 |
| 20260507201323 | 53 | 305 | 2.0 | 6.0 | 0.00 | 0.00 | 0.00 | 74 | 1016.1 |
| 20260507201312 | 54 | 105 | 1.0 | 5.0 | 0.00 | 0.00 | 0.00 | 72 | 1016.0 |
| 20260507200319 | 54 | 89 | 2.0 | 5.0 | 0.00 | 0.00 | 0.00 | 72 | 1015.9 |
| 20260507195815 | 54 | 76 | 2.0 | 4.0 | 0.00 | 0.00 | 0.00 | 72 | 1015.8 |
| 20260507195540 | 54 | 135 | 2.0 | 4.0 | 0.00 | 0.00 | 0.00 | 72 | 1015.7 |
| 20260507194812 | 54 | 89 | 2.0 | 4.0 | 0.00 | 0.00 | 0.00 | 71 | 1015.8 |
| 20260507194312 | 54 | 223 | 2.0 | 4.0 | 0.00 | 0.00 | 0.00 | 71 | 1015.7 |
| 20260507194035 | 54 | 135 | 2.0 | 4.0 | 0.00 | 0.00 | 0.00 | 71 | 1015.7 |
| 20260507193307 | 54 | 145 | 2.0 | 4.0 | 0.00 | 0.00 | 0.00 | 71 | 1015.6 |
| 20260507192803 | 55 | 105 | 2.0 | 3.0 | 0.00 | 0.00 | 0.00 | 70 | 1015.6 |
| 20260507192306 | 55 | 135 | 1.0 | 3.0 | 0.00 | 0.00 | 0.00 | 70 | 1015.6 |
| 20260507191800 | 55 | 135 | 2.0 | 3.0 | 0.00 | 0.00 | 0.00 | 69 | 1015.6 |
| 20260507191256 | 55 | 253 | 1.0 | 5.0 | 0.00 | 0.00 | 0.00 | 69 | 1015.6 |
| 20260507190756 | 55 | 223 | 1.0 | 5.0 | 0.00 | 0.00 | 0.00 | 69 | 1015.6 |
| 20260507190251 | 55 | 1 | 1.0 | 4.0 | 0.00 | 0.00 | 0.00 | 69 | 1015.6 |
| 20260507190233 | 55 | 218 | 1.0 | 4.0 | 0.00 | 0.00 | 0.00 | 68 | 1015.6 |
| 20260507185242 | 55 | 79 | 1.0 | 5.0 | 0.00 | 0.00 | 0.00 | 68 | 1015.6 |
| 20260507185005 | 55 | 295 | 2.0 | 5.0 | 0.00 | 0.00 | 0.00 | 68 | 1015.5 |
| 20260507184238 | 55 | 67 | 1.0 | 4.0 | 0.00 | 0.00 | 0.00 | 68 | 1015.5 |
| 20260507183734 | 55 | 223 | 2.0 | 5.0 | 0.00 | 0.00 | 0.00 | 68 | 1015.5 |
| 20260507183235 | 56 | 240 | 1.0 | 5.0 | 0.00 | 0.00 | 0.00 | 67 | 1015.5 |
| 20260507183214 | 56 | 1 | 1.0 | 6.0 | 0.00 | 0.00 | 0.00 | 67 | 1015.5 |
| 20260507182230 | 56 | 9 | 2.0 | 6.0 | 0.00 | 0.00 | 0.00 | 66 | 1015.4 |
| 20260507181726 | 56 | 149 | 2.0 | 6.0 | 0.00 | 0.00 | 0.00 | 66 | 1015.4 |
| 20260507181712 | 57 | 102 | 1.0 | 8.0 | 0.00 | 0.00 | 0.00 | 66 | 1015.3 |
| 20260507180722 | 57 | 216 | 3.0 | 9.0 | 0.00 | 0.00 | 0.00 | 65 | 1015.3 |
| 20260507180218 | 57 | 252 | 3.0 | 9.0 | 0.00 | 0.00 | 0.00 | 65 | 1015.2 |
| 20260507175719 | 56 | 250 | 3.0 | 8.0 | 0.00 | 0.00 | 0.00 | 65 | 1015.3 |
| 20260507175439 | 56 | 269 | 2.0 | 6.0 | 0.00 | 0.00 | 0.00 | 66 | 1015.4 |
| 20260507174714 | 56 | 236 | 3.0 | 6.0 | 0.00 | 0.00 | 0.00 | 65 | 1015.3 |
| 20260507174210 | 56 | 252 | 2.0 | 15.0 | 0.00 | 0.00 | 0.00 | 66 | 1015.3 |
| 20260507173710 | 56 | 145 | 2.0 | 9.0 | 0.00 | 0.00 | 0.00 | 67 | 1015.4 |
| 20260507173437 | 56 | 39 | 3.0 | 8.0 | 0.00 | 0.00 | 0.00 | 67 | 1015.3 |
| 20260507172702 | 56 | 223 | 3.0 | 8.0 | 0.00 | 0.00 | 0.00 | 66 | 1015.4 |
| 20260507172203 | 56 | 108 | 2.0 | 8.0 | 0.00 | 0.00 | 0.00 | 66 | 1015.4 |
| 20260507171658 | 56 | 230 | 2.0 | 8.0 | 0.00 | 0.00 | 0.00 | 67 | 1015.4 |
| 20260507171158 | 56 | 1 | 2.0 | 10.0 | 0.00 | 0.00 | 0.00 | 67 | 1015.5 |
| 20260507170653 | 56 | 187 | 3.0 | 10.0 | 0.00 | 0.00 | 0.00 | 67 | 1015.3 |
| 20260507170149 | 56 | 46 | 4.0 | 10.0 | 0.00 | 0.00 | 0.00 | 66 | 1015.3 |
| 20260507165650 | 56 | 126 | 2.0 | 6.0 | 0.00 | 0.00 | 0.00 | 66 | 1015.3 |
| 20260507165406 | 56 | 46 | 3.0 | 6.0 | 0.00 | 0.00 | 0.00 | 66 | 1015.4 |
| 20260507164645 | 56 | 314 | 2.0 | 11.0 | 0.00 | 0.00 | 0.00 | 65 | 1015.3 |
| 20260507164141 | 56 | 223 | 4.0 | 11.0 | 0.00 | 0.00 | 0.00 | 65 | 1015.4 |
| 20260507163905 | 57 | 89 | 2.0 | 6.0 | 0.00 | 0.00 | 0.00 | 65 | 1015.4 |
| 20260507163137 | 57 | 206 | 2.0 | 6.0 | 0.00 | 0.00 | 0.00 | 64 | 1015.3 |
| 20260507162637 | 57 | 28 | 2.0 | 8.0 | 0.00 | 0.00 | 0.00 | 63 | 1015.3 |
| 20260507162133 | 57 | 248 | 4.0 | 8.0 | 0.00 | 0.00 | 0.00 | 62 | 1015.3 |
| 20260507161858 | 57 | 72 | 2.0 | 8.0 | 0.00 | 0.00 | 0.00 | 62 | 1015.3 |
| 20260507161130 | 57 | 223 | 2.0 | 7.0 | 0.00 | 0.00 | 0.00 | 61 | 1015.3 |
| 20260507160620 | 58 | 329 | 3.0 | 7.0 | 0.00 | 0.00 | 0.00 | 61 | 1015.3 |
| 20260507160115 | 58 | 314 | 2.0 | 8.0 | 0.00 | 0.00 | 0.00 | 61 | 1015.1 |
| 20260507155611 | 58 | 269 | 3.0 | 8.0 | 0.00 | 0.00 | 0.00 | 59 | 1015.2 |
| 20260507155329 | 59 | 135 | 3.0 | 9.0 | 0.00 | 0.00 | 0.00 | 60 | 1015.2 |
| 20260507154601 | 59 | 243 | 4.0 | 11.0 | 0.00 | 0.00 | 0.00 | 61 | 1015.2 |
| 20260507154057 | 58 | 82 | 3.0 | 11.0 | 0.00 | 0.00 | 0.00 | 60 | 1015.2 |
| 20260507153553 | 60 | 233 | 3.0 | 9.0 | 0.00 | 0.00 | 0.00 | 58 | 1015.3 |
| 20260507153053 | 60 | 250 | 3.0 | 17.0 | 0.00 | 0.00 | 0.00 | 56 | 1015.3 |
| 20260507152553 | 60 | 158 | 5.0 | 17.0 | 0.00 | 0.00 | 0.00 | 57 | 1015.2 |
| 20260507152307 | 60 | 259 | 2.0 | 9.0 | 0.00 | 0.00 | 0.00 | 57 | 1015.2 |
| 20260507151551 | 60 | 203 | 4.0 | 12.0 | 0.00 | 0.00 | 0.00 | 56 | 1015.2 |
| 20260507151047 | 60 | 274 | 4.0 | 12.0 | 0.00 | 0.00 | 0.00 | 55 | 1015.2 |
| 20260507150546 | 61 | 191 | 4.0 | 13.0 | 0.00 | 0.00 | 0.00 | 53 | 1015.2 |
| 20260507150042 | 60 | 213 | 6.0 | 13.0 | 0.00 | 0.00 | 0.00 | 53 | 1015.2 |
| 20260507145803 | 61 | 216 | 4.0 | 11.0 | 0.00 | 0.00 | 0.00 | 54 | 1015.2 |
| 20260507145301 | 61 | 236 | 4.0 | 9.0 | 0.00 | 0.00 | 0.00 | 55 | 1015.3 |
| 20260507144534 | 60 | 46 | 3.0 | 8.0 | 0.00 | 0.00 | 0.00 | 57 | 1015.3 |
| 20260507144034 | 60 | 260 | 4.0 | 11.0 | 0.00 | 0.00 | 0.00 | 56 | 1015.3 |
| 20260507143529 | 59 | 98 | 4.0 | 11.0 | 0.00 | 0.00 | 0.00 | 57 | 1015.4 |
| 20260507143025 | 58 | 152 | 4.0 | 11.0 | 0.00 | 0.00 | 0.00 | 59 | 1015.5 |
| 20260507142522 | 58 | 269 | 4.0 | 9.0 | 0.00 | 0.00 | 0.00 | 58 | 1015.6 |
| 20260507142238 | 58 | 303 | 4.0 | 10.0 | 0.00 | 0.00 | 0.00 | 58 | 1015.6 |
| 20260507141516 | 59 | 89 | 2.0 | 12.0 | 0.00 | 0.00 | 0.00 | 58 | 1015.6 |
| 20260507141012 | 60 | 260 | 3.0 | 14.0 | 0.00 | 0.00 | 0.00 | 58 | 1015.7 |
| 20260507140512 | 60 | 76 | 3.0 | 14.0 | 0.00 | 0.00 | 0.00 | 57 | 1015.7 |
| 20260507140009 | 59 | 82 | 3.0 | 8.0 | 0.00 | 0.00 | 0.00 | 58 | 1015.7 |
| 20260507135508 | 58 | 142 | 4.0 | 10.0 | 0.00 | 0.00 | 0.00 | 58 | 1015.7 |
| 20260507135005 | 58 | 238 | 3.0 | 10.0 | 0.00 | 0.00 | 0.00 | 60 | 1015.8 |
| 20260507134507 | 58 | 257 | 2.0 | 10.0 | 0.00 | 0.00 | 0.00 | 62 | 1015.8 |
| 20260507134001 | 58 | 82 | 3.0 | 10.0 | 0.00 | 0.00 | 0.00 | 61 | 1015.7 |
| 20260507133456 | 58 | 76 | 4.0 | 10.0 | 0.00 | 0.00 | 0.00 | 63 | 1015.8 |